Regional Weather Roundup
Issued by NWS Kansas City/Pleasant Hill, MO

Home | Current Version | Previous Version | Text Only | Print | Product List | Glossary On
Versions: 1 2 3 4 5 6 7 8 9 10 11 12 13 14 15 16 17 18 19 20 21 22 23 24 25 26 27 28 29 30 31 32 33 34 35 36 37 38 39 40 41 42 43 44 45 46 47 48 49 50
000
ASUS43 KEAX 181404
RWREAX

WEATHER ROUNDUP FOR EASTERN KANSAS AND NORTHWEST MISSOURI
NATIONAL WEATHER SERVICE KANSAS CITY/PLEASANT HILL MO
900 AM CDT THU SEP 18 2014

KSZ040-057-103>105-MOZ028-029-037-043-181500-
...KANSAS CITY METROPOLITAN AREA...

CITY           SKY/WX    TMP DP  RH WIND       PRES   REMARKS
K.C. INTL      FOG       59  59 100 E10       30.02R VSB 1/2
K.C. DOWNTOWN  CLOUDY    62  59  90 E12       30.01R
LEES SUMMIT    FOG       61  60  97 E8        30.02S VSB 1
OLATHE - IXD   CLOUDY    62  61  96 E9        30.01R FOG
OLATHE - OJC   CLOUDY    60  60 100 E10       30.00R FOG
LAWRENCE       CLOUDY    63  60  90 E7        30.00R FOG

$$

MOZ001>008-011>017-020>025-030>033-038>040-044>046-053-054-181500-
...NORTHERN AND CENTRAL MISSOURI...

CITY           SKY/WX    TMP DP  RH WIND       PRES   REMARKS
ST. JOSEPH     CLOUDY    60  59  96 E8        30.03R FOG
MOSBY          CLOUDY    59  59 100 E9        30.03R FOG
WHITEMAN AFB   FOG       61  60  97 E8        30.03R VSB 1
CLINTON        FOG       64  64 100 E6        30.02S VSB 1/4
SEDALIA        FOG       61  60  97 E7        30.04S VSB 3/4
WARSAW         NOT AVBL
MARSHALL       CLOUDY    63  63 100 E7        30.05S FOG
CHILLICOTHE      N/A     59  55  87 E8        30.08R
KIRKSVILLE     FOG       56  55  97 E7        30.09R VSB 1/4

$$

MOZ041-047>049-056>058-063>065-088>090-097-181500-
...EASTERN AND SOUTHERN MISSOURI...

CITY           SKY/WX    TMP DP  RH WIND       PRES   REMARKS
ST. LOUIS INTL CLOUDY    63  56  78 E7        30.07R
SPIRIT OF STL  CLOUDY    62  56  80 E3        30.05R
COLUMBIA       CLOUDY    60  59  96 SE6       30.05  FOG
JEFFERSON CITY CLOUDY    61  59  93 E7        30.05R FOG
MEXICO         CLOUDY   N/A N/A N/A E5        30.07R HAZE
ROLLA          CLOUDY    58  58 100 E9        30.04R FOG
LEBANON        CLOUDY    61  59  94 E6        30.04S FOG
OSAGE BEACH    CLOUDY    63  59  88 E6        30.04R
SPRINGFIELD    CLOUDY    65  63  93 NE8       30.01R
BRANSON        CLOUDY    64  63  94 E12       30.01S
NEVADA         CLOUDY    64  63  94 CALM      29.99F
JOPLIN         CLOUDY    66  60  81 S23G31    29.87F
WEST PLAINS    FOG       60  59  96 NE5       30.05R VSB 1/4

$$

IAZ060-094-KSZ022-034>040-054-083-096-NEZ052-066-093-181500-
...KANSAS...SOUTHEAST NEBRASKA AND IOWA...

CITY           SKY/WX    TMP DP  RH WIND       PRES   REMARKS
TOPEKA         CLOUDY    65  63  93 E10       29.99R FOG
MANHATTAN      CLOUDY    67  64  90 E10       29.98R
EMPORIA        CLOUDY    64  64 100 E3        29.96F THUNDER
CHANUTE        LGT RAIN  66  63  90 VRB6      30.02R
WICHITA        PTSUNNY   69  62  78 SE21      29.97R
OMAHA          CLOUDY    62  58  86 SE12      30.04R FOG
LINCOLN        CLOUDY    64  61  90 SE10      30.03R
FALLS CITY     CLOUDY    61  60  97 E9        30.01R FOG
LAMONI         CLOUDY    56  56 100 E6        30.07R FOG
DES MOINES     DRZL/FOG  57  56  96 SE5       30.09R VSB 1/8

$$



USA.gov is the U.S. government's official web portal to all federal, state and local government web resources and services.